Location: Bittkow
(50.3000°N, 19.0000°E)
Time: 14:08:42
(UTC+00:00)

Cosmos 1943 Rocket - Pass Details

Date: 19 September 2020
Orbit: 814 x 842 km, 71.0° (Epoch: 27 October)

Event Time Altitude Azimuth Distance (km) Brightness Sun altitude
Exits shadow 00:17:07 23° 328° (NNW) 1,727 4.0 -34.1°
Drops below altitude 10° 00:21:00 10° 12° (NNE) 2,441 5.3 -33.8°
Sets 00:23:58 0° 27° (NNE) 3,372 6.4 -33.6°
